Time,TemperatureF,DewpointF,PressureIn,WindDirection,WindDirectionDegrees,WindSpeedMPH,WindSpeedGustMPH,Humidity,HourlyPrecipIn,Conditions,Clouds,dailyrainin,SoftwareType,DateUTC
2013-04-05 00:02:00,50.0,-99.9,-100.00,NNW,328,5.0,7.0,-999,0.00,,,0.00,,2013-04-05 05:02:00,
2013-04-05 00:13:00,48.0,-99.9,-100.00,North,350,3.0,5.0,-999,0.00,,,0.00,,2013-04-05 05:13:00,
2013-04-05 00:22:00,48.0,-99.9,-100.00,North,350,3.0,5.0,-999,0.00,,,0.00,,2013-04-05 05:22:00,
2013-04-05 00:32:00,48.0,-99.9,-100.00,North,350,3.0,5.0,-999,0.00,,,0.00,,2013-04-05 05:32:00,
2013-04-05 00:40:00,45.0,-99.9,-100.00,North,1,2.0,4.0,-999,0.00,,,0.00,,2013-04-05 05:40:00,
2013-04-05 00:42:00,46.0,-99.9,-100.00,North,352,3.0,4.0,-999,0.00,,,0.00,,2013-04-05 05:42:00,
2013-04-05 00:53:00,46.0,-99.9,-100.00,North,352,3.0,4.0,-999,0.00,,,0.00,,2013-04-05 05:53:00,
2013-04-05 01:03:00,46.0,-99.9,-100.00,North,352,3.0,4.0,-999,0.00,,,0.00,,2013-04-05 06:03:00,
2013-04-05 01:12:00,45.0,-99.9,-100.00,North,1,2.0,4.0,-999,0.00,,,0.00,,2013-04-05 06:12:00,
2013-04-05 01:22:00,45.0,-99.9,-100.00,North,1,2.0,4.0,-999,0.00,,,0.00,,2013-04-05 06:22:00,
2013-04-05 01:33:00,45.0,-99.9,-100.00,North,1,2.0,4.0,-999,0.00,,,0.00,,2013-04-05 06:33:00,
2013-04-05 02:12:00,44.0,-99.9,-100.00,North,4,3.0,7.0,-999,0.00,,,0.00,,2013-04-05 07:12:00,
2013-04-05 02:23:00,44.0,-99.9,-100.00,North,4,3.0,7.0,-999,0.00,,,0.00,,2013-04-05 07:23:00,
2013-04-05 02:32:00,44.0,-99.9,-100.00,North,4,3.0,7.0,-999,0.00,,,0.00,,2013-04-05 07:32:00,
2013-04-05 02:42:00,43.0,-99.9,-100.00,NNW,344,3.0,5.0,-999,0.00,,,0.00,,2013-04-05 07:42:00,
2013-04-05 02:53:00,43.0,-99.9,-100.00,NNW,344,3.0,5.0,-999,0.00,,,0.00,,2013-04-05 07:53:00,
2013-04-05 03:03:00,43.0,-99.9,-100.00,NNW,344,3.0,5.0,-999,0.00,,,0.00,,2013-04-05 08:03:00,
2013-04-05 03:13:00,43.0,-99.9,-100.00,NNW,342,5.0,6.0,-999,0.00,,,0.00,,2013-04-05 08:13:00,
2013-04-05 03:23:00,43.0,-99.9,-100.00,NNW,342,5.0,6.0,-999,0.00,,,0.00,,2013-04-05 08:23:00,
2013-04-05 03:33:00,43.0,-99.9,-100.00,NNW,342,5.0,6.0,-999,0.00,,,0.00,,2013-04-05 08:33:00,
2013-04-05 03:43:00,42.0,-99.9,-100.00,NNW,343,5.0,6.0,-999,0.00,,,0.00,,2013-04-05 08:43:00,
2013-04-05 03:52:00,42.0,-99.9,-100.00,NNW,343,5.0,6.0,-999,0.00,,,0.00,,2013-04-05 08:52:00,
2013-04-05 04:02:00,42.0,-99.9,-100.00,NNW,343,5.0,6.0,-999,0.00,,,0.00,,2013-04-05 09:02:00,
2013-04-05 04:13:00,41.0,-99.9,-100.00,North,11,3.0,4.0,-999,0.00,,,0.00,,2013-04-05 09:13:00,
2013-04-05 04:22:00,41.0,-99.9,-100.00,North,11,3.0,4.0,-999,0.00,,,0.00,,2013-04-05 09:22:00,
2013-04-05 04:33:00,41.0,-99.9,-100.00,North,11,3.0,4.0,-999,0.00,,,0.00,,2013-04-05 09:33:00,
2013-04-05 04:43:00,41.0,-99.9,-100.00,North,6,2.0,4.0,-999,0.00,,,0.00,,2013-04-05 09:43:00,
2013-04-05 04:53:00,41.0,-99.9,-100.00,North,6,2.0,4.0,-999,0.00,,,0.00,,2013-04-05 09:53:00,
2013-04-05 05:03:00,41.0,-99.9,-100.00,North,6,2.0,4.0,-999,0.00,,,0.00,,2013-04-05 10:03:00,
2013-04-05 05:13:00,39.0,-99.9,-100.00,NNW,346,4.0,6.0,-999,0.00,,,0.00,,2013-04-05 10:13:00,
2013-04-05 05:23:00,39.0,-99.9,-100.00,NNW,346,4.0,6.0,-999,0.00,,,0.00,,2013-04-05 10:23:00,
2013-04-05 05:33:00,39.0,-99.9,-100.00,NNW,346,4.0,6.0,-999,0.00,,,0.00,,2013-04-05 10:33:00,
2013-04-05 05:43:00,39.0,-99.9,-100.00,NNW,339,4.0,5.0,-999,0.00,,,0.00,,2013-04-05 10:43:00,
2013-04-05 05:54:00,39.0,-99.9,-100.00,NNW,339,4.0,5.0,-999,0.00,,,0.00,,2013-04-05 10:54:00,
2013-04-05 06:03:00,39.0,-99.9,-100.00,NNW,339,4.0,5.0,-999,0.00,,,0.00,,2013-04-05 11:03:00,
2013-04-05 06:13:00,38.0,-99.9,-100.00,North,350,2.0,3.0,-999,0.00,,,0.00,,2013-04-05 11:13:00,
2013-04-05 06:23:00,38.0,-99.9,-100.00,North,350,2.0,3.0,-999,0.00,,,0.00,,2013-04-05 11:23:00,
2013-04-05 06:33:00,38.0,-99.9,-100.00,North,350,2.0,3.0,-999,0.00,,,0.00,,2013-04-05 11:33:00,
2013-04-05 06:40:00,37.0,-99.9,-100.00,NNW,338,3.0,4.0,-999,0.00,,,0.00,,2013-04-05 11:40:00,
2013-04-05 06:42:00,38.0,-99.9,-100.00,NW,325,4.0,5.0,-999,0.00,,,0.00,,2013-04-05 11:42:00,
2013-04-05 06:52:00,38.0,-99.9,-100.00,NW,325,4.0,5.0,-999,0.00,,,0.00,,2013-04-05 11:52:00,
2013-04-05 07:02:00,38.0,-99.9,-100.00,NW,325,4.0,5.0,-999,0.00,,,0.00,,2013-04-05 12:02:00,
2013-04-05 07:12:00,37.0,-99.9,-100.00,NNW,338,3.0,4.0,-999,0.00,,,0.00,,2013-04-05 12:12:00,
2013-04-05 07:23:00,37.0,-99.9,-100.00,NNW,338,3.0,4.0,-999,0.00,,,0.00,,2013-04-05 12:23:00,
2013-04-05 07:32:00,37.0,-99.9,-100.00,NNW,338,3.0,4.0,-999,0.00,,,0.00,,2013-04-05 12:32:00,
2013-04-05 08:12:00,38.0,-99.9,-100.00,NNW,336,4.0,6.0,-999,0.00,,,0.00,,2013-04-05 13:12:00,
2013-04-05 08:23:00,38.0,-99.9,-100.00,NNW,336,4.0,6.0,-999,0.00,,,0.00,,2013-04-05 13:23:00,
2013-04-05 08:32:00,38.0,-99.9,-100.00,NNW,336,4.0,6.0,-999,0.00,,,0.00,,2013-04-05 13:32:00,
2013-04-05 08:43:00,40.0,-99.9,-100.00,NNW,347,4.0,7.0,-999,0.00,,,0.00,,2013-04-05 13:43:00,
2013-04-05 08:53:00,40.0,-99.9,-100.00,NNW,347,4.0,7.0,-999,0.00,,,0.00,,2013-04-05 13:53:00,
2013-04-05 09:03:00,40.0,-99.9,-100.00,NNW,347,4.0,7.0,-999,0.00,,,0.00,,2013-04-05 14:03:00,
2013-04-05 09:12:00,43.0,-99.9,-100.00,NE,48,3.0,4.0,-999,0.00,,,0.00,,2013-04-05 14:12:00,
2013-04-05 09:23:00,43.0,-99.9,-100.00,NE,48,3.0,4.0,-999,0.00,,,0.00,,2013-04-05 14:23:00,
2013-04-05 09:37:00,43.0,-99.9,-100.00,NE,48,3.0,4.0,-999,0.00,,,0.00,,2013-04-05 14:37:00,
2013-04-05 09:43:00,44.0,-99.9,-100.00,ENE,78,7.0,10.0,-999,0.00,,,0.00,,2013-04-05 14:43:00,
2013-04-05 09:55:00,44.0,-99.9,-100.00,ENE,78,7.0,10.0,-999,0.00,,,0.00,,2013-04-05 14:55:00,
2013-04-05 10:02:00,44.0,-99.9,-100.00,ENE,78,7.0,10.0,-999,0.00,,,0.00,,2013-04-05 15:02:00,
2013-04-05 10:13:00,47.0,-99.9,-100.00,East,88,7.0,13.0,-999,0.00,,,0.00,,2013-04-05 15:13:00,
2013-04-05 10:24:00,47.0,-99.9,-100.00,East,88,7.0,13.0,-999,0.00,,,0.00,,2013-04-05 15:24:00,
2013-04-05 10:34:00,47.0,-99.9,-100.00,East,88,7.0,13.0,-999,0.00,,,0.00,,2013-04-05 15:34:00,
2013-04-05 10:43:00,47.0,-99.9,-100.00,ESE,104,6.0,10.0,-999,0.00,,,0.00,,2013-04-05 15:43:00,
2013-04-05 10:55:00,47.0,-99.9,-100.00,ESE,104,6.0,10.0,-999,0.00,,,0.00,,2013-04-05 15:55:00,
2013-04-05 11:03:00,47.0,-99.9,-100.00,ESE,104,6.0,10.0,-999,0.00,,,0.00,,2013-04-05 16:03:00,
2013-04-05 11:15:00,48.0,-99.9,-100.00,ESE,103,9.0,14.0,-999,0.00,,,0.00,,2013-04-05 16:15:00,
2013-04-05 11:24:00,48.0,-99.9,-100.00,ESE,103,9.0,14.0,-999,0.00,,,0.00,,2013-04-05 16:24:00,
2013-04-05 11:33:00,48.0,-99.9,-100.00,ESE,103,9.0,14.0,-999,0.00,,,0.00,,2013-04-05 16:33:00,
2013-04-05 11:43:00,51.0,-99.9,-100.00,East,99,10.0,12.0,-999,0.00,,,0.00,,2013-04-05 16:43:00,
2013-04-05 11:53:00,51.0,-99.9,-100.00,East,99,10.0,12.0,-999,0.00,,,0.00,,2013-04-05 16:53:00,
2013-04-05 12:04:00,51.0,-99.9,-100.00,East,99,10.0,12.0,-999,0.00,,,0.00,,2013-04-05 17:04:00,
2013-04-05 12:13:00,52.0,-99.9,-100.00,ESE,105,8.0,11.0,-999,0.00,,,0.00,,2013-04-05 17:13:00,
2013-04-05 12:24:00,52.0,-99.9,-100.00,ESE,105,8.0,11.0,-999,0.00,,,0.00,,2013-04-05 17:24:00,
2013-04-05 12:33:00,52.0,-99.9,-100.00,ESE,105,8.0,11.0,-999,0.00,,,0.00,,2013-04-05 17:33:00,
2013-04-05 12:46:00,52.0,-99.9,-100.00,ESE,115,8.0,12.0,-999,0.00,,,0.00,,2013-04-05 17:46:00,
2013-04-05 12:53:00,52.0,-99.9,-100.00,ESE,115,8.0,12.0,-999,0.00,,,0.00,,2013-04-05 17:53:00,
2013-04-05 13:03:00,52.0,-99.9,-100.00,ESE,115,8.0,12.0,-999,0.00,,,0.00,,2013-04-05 18:03:00,
2013-04-05 13:13:00,54.0,-99.9,-100.00,ESE,110,7.0,12.0,-999,0.00,,,0.00,,2013-04-05 18:13:00,
2013-04-05 13:23:00,54.0,-99.9,-100.00,ESE,110,7.0,12.0,-999,0.00,,,0.00,,2013-04-05 18:23:00,
2013-04-05 13:35:00,54.0,-99.9,-100.00,ESE,110,7.0,12.0,-999,0.00,,,0.00,,2013-04-05 18:35:00,
2013-04-05 13:44:00,55.0,-99.9,-100.00,East,96,5.0,11.0,-999,0.00,,,0.00,,2013-04-05 18:44:00,
2013-04-05 13:53:00,55.0,-99.9,-100.00,East,96,5.0,11.0,-999,0.00,,,0.00,,2013-04-05 18:53:00,
2013-04-05 14:03:00,55.0,-99.9,-100.00,East,96,5.0,11.0,-999,0.00,,,0.00,,2013-04-05 19:03:00,
2013-04-05 14:14:00,56.0,-99.9,-100.00,ESE,123,4.0,9.0,-999,0.00,,,0.00,,2013-04-05 19:14:00,
2013-04-05 14:23:00,56.0,-99.9,-100.00,ESE,123,4.0,9.0,-999,0.00,,,0.00,,2013-04-05 19:23:00,
2013-04-05 14:34:00,56.0,-99.9,-100.00,ESE,123,4.0,9.0,-999,0.00,,,0.00,,2013-04-05 19:34:00,
2013-04-05 14:43:00,54.0,-99.9,-100.00,SE,144,5.0,8.0,-999,0.00,,,0.00,,2013-04-05 19:43:00,
2013-04-05 14:53:00,54.0,-99.9,-100.00,SE,144,5.0,8.0,-999,0.00,,,0.00,,2013-04-05 19:53:00,
2013-04-05 15:03:00,54.0,-99.9,-100.00,SE,144,5.0,8.0,-999,0.00,,,0.00,,2013-04-05 20:03:00,
2013-04-05 15:12:00,55.0,-99.9,-100.00,SE,142,4.0,7.0,-999,0.00,,,0.00,,2013-04-05 20:12:00,
2013-04-05 15:23:00,55.0,-99.9,-100.00,SE,142,4.0,7.0,-999,0.00,,,0.00,,2013-04-05 20:23:00,
2013-04-05 15:33:00,55.0,-99.9,-100.00,SE,142,4.0,7.0,-999,0.00,,,0.00,,2013-04-05 20:33:00,
2013-04-05 15:43:00,56.0,-99.9,-100.00,SSE,165,4.0,7.0,-999,0.00,,,0.00,,2013-04-05 20:43:00,
2013-04-05 15:53:00,56.0,-99.9,-100.00,SSE,165,4.0,7.0,-999,0.00,,,0.00,,2013-04-05 20:53:00,
2013-04-05 16:03:00,56.0,-99.9,-100.00,SSE,165,4.0,7.0,-999,0.00,,,0.00,,2013-04-05 21:03:00,
2013-04-05 16:13:00,58.0,-99.9,-100.00,SSE,153,2.0,4.0,-999,0.00,,,0.00,,2013-04-05 21:13:00,
2013-04-05 16:24:00,58.0,-99.9,-100.00,SSE,153,2.0,4.0,-999,0.00,,,0.00,,2013-04-05 21:24:00,
2013-04-05 16:35:00,58.0,-99.9,-100.00,SSE,153,2.0,4.0,-999,0.00,,,0.00,,2013-04-05 21:35:00,
2013-04-05 16:45:00,58.0,-99.9,-100.00,SE,128,5.0,7.0,-999,0.00,,,0.00,,2013-04-05 21:45:00,
2013-04-05 16:56:00,58.0,-99.9,-100.00,SE,128,5.0,7.0,-999,0.00,,,0.00,,2013-04-05 21:56:00,
2013-04-05 17:04:00,58.0,-99.9,-100.00,SE,128,5.0,7.0,-999,0.00,,,0.00,,2013-04-05 22:04:00,
2013-04-05 17:14:00,58.0,-99.9,-100.00,SE,127,4.0,7.0,-999,0.00,,,0.00,,2013-04-05 22:14:00,
2013-04-05 17:34:00,58.0,-99.9,-100.00,SE,127,4.0,7.0,-999,0.00,,,0.00,,2013-04-05 22:34:00,
2013-04-05 17:44:00,59.0,-99.9,-100.00,ESE,111,5.0,9.0,-999,0.00,,,0.00,,2013-04-05 22:44:00,
2013-04-05 17:53:00,59.0,-99.9,-100.00,ESE,111,5.0,9.0,-999,0.00,,,0.00,,2013-04-05 22:53:00,
2013-04-05 18:03:00,59.0,-99.9,-100.00,ESE,111,5.0,9.0,-999,0.00,,,0.00,,2013-04-05 23:03:00,
2013-04-05 18:13:00,58.0,-99.9,-100.00,East,96,6.0,9.0,-999,0.00,,,0.00,,2013-04-05 23:13:00,
2013-04-05 18:23:00,58.0,-99.9,-100.00,East,96,6.0,9.0,-999,0.00,,,0.00,,2013-04-05 23:23:00,
2013-04-05 18:33:00,58.0,-99.9,-100.00,East,96,6.0,9.0,-999,0.00,,,0.00,,2013-04-05 23:33:00,
2013-04-05 18:40:00,58.0,-99.9,-100.00,SE,124,6.0,9.0,-999,0.00,,,0.00,,2013-04-05 23:40:00,
2013-04-05 18:43:00,58.0,-99.9,-100.00,East,97,7.0,8.0,-999,0.00,,,0.00,,2013-04-05 23:43:00,
2013-04-05 18:53:00,58.0,-99.9,-100.00,East,97,7.0,8.0,-999,0.00,,,0.00,,2013-04-05 23:53:00,
2013-04-05 19:03:00,58.0,-99.9,-100.00,East,97,7.0,8.0,-999,0.00,,,0.00,,2013-04-06 00:03:00,
2013-04-05 19:13:00,58.0,-99.9,-100.00,SE,124,6.0,9.0,-999,0.00,,,0.00,,2013-04-06 00:13:00,
2013-04-05 19:23:00,58.0,-99.9,-100.00,SE,124,6.0,9.0,-999,0.00,,,0.00,,2013-04-06 00:23:00,
2013-04-05 19:33:00,58.0,-99.9,-100.00,SE,124,6.0,9.0,-999,0.00,,,0.00,,2013-04-06 00:33:00,
2013-04-05 20:13:00,55.0,-99.9,-100.00,ESE,118,6.0,7.0,-999,0.00,,,0.00,,2013-04-06 01:13:00,
2013-04-05 20:23:00,55.0,-99.9,-100.00,ESE,118,6.0,7.0,-999,0.00,,,0.00,,2013-04-06 01:23:00,
2013-04-05 20:33:00,55.0,-99.9,-100.00,ESE,118,6.0,7.0,-999,0.00,,,0.00,,2013-04-06 01:33:00,
2013-04-05 20:44:00,54.0,-99.9,-100.00,ESE,104,6.0,7.0,-999,0.00,,,0.00,,2013-04-06 01:44:00,
2013-04-05 20:53:00,54.0,-99.9,-100.00,ESE,104,6.0,7.0,-999,0.00,,,0.00,,2013-04-06 01:53:00,
2013-04-05 21:03:00,54.0,-99.9,-100.00,ESE,104,6.0,7.0,-999,0.00,,,0.00,,2013-04-06 02:03:00,
2013-04-05 21:13:00,53.0,-99.9,-100.00,ESE,123,5.0,6.0,-999,0.00,,,0.00,,2013-04-06 02:13:00,
2013-04-05 21:23:00,53.0,-99.9,-100.00,ESE,123,5.0,6.0,-999,0.00,,,0.00,,2013-04-06 02:23:00,
2013-04-05 21:33:00,53.0,-99.9,-100.00,ESE,123,5.0,6.0,-999,0.00,,,0.00,,2013-04-06 02:33:00,
2013-04-05 21:43:00,53.0,-99.9,-100.00,SE,126,7.0,9.0,-999,0.00,,,0.00,,2013-04-06 02:43:00,
2013-04-05 21:53:00,53.0,-99.9,-100.00,SE,126,7.0,9.0,-999,0.00,,,0.00,,2013-04-06 02:53:00,
2013-04-05 22:05:00,53.0,-99.9,-100.00,SE,126,7.0,9.0,-999,0.00,,,0.00,,2013-04-06 03:05:00,
2013-04-05 22:13:00,52.0,-99.9,-100.00,SE,139,7.0,9.0,-999,0.00,,,0.00,,2013-04-06 03:13:00,
2013-04-05 22:23:00,52.0,-99.9,-100.00,SE,139,7.0,9.0,-999,0.00,,,0.00,,2013-04-06 03:23:00,
2013-04-05 22:34:00,52.0,-99.9,-100.00,SE,139,7.0,9.0,-999,0.00,,,0.00,,2013-04-06 03:34:00,
2013-04-05 22:44:00,52.0,-99.9,-100.00,SE,125,6.0,8.0,-999,0.00,,,0.00,,2013-04-06 03:44:00,
2013-04-05 22:55:00,52.0,-99.9,-100.00,SE,125,6.0,8.0,-999,0.00,,,0.00,,2013-04-06 03:55:00,
2013-04-05 23:05:00,52.0,-99.9,-100.00,SE,125,6.0,8.0,-999,0.00,,,0.00,,2013-04-06 04:05:00,
2013-04-05 23:14:00,51.0,-99.9,-100.00,ESE,123,6.0,9.0,-999,0.00,,,0.00,,2013-04-06 04:14:00,
2013-04-05 23:23:00,51.0,-99.9,-100.00,ESE,123,6.0,9.0,-999,0.00,,,0.00,,2013-04-06 04:23:00,
2013-04-05 23:33:00,51.0,-99.9,-100.00,ESE,123,6.0,9.0,-999,0.00,,,0.00,,2013-04-06 04:33:00,
2013-04-05 23:43:00,51.0,-99.9,-100.00,SE,128,9.0,12.0,-999,0.00,,,0.00,,2013-04-06 04:43:00,
2013-04-05 23:53:00,51.0,-99.9,-100.00,SE,128,9.0,12.0,-999,0.00,,,0.00,,2013-04-06 04:53:00,